Lid_Strength_Index
10 13 14 13 12 11 12 12 13 11 9 10 10 11 9 8 9 9 8 8 8 7 8 8 3 2 2 2 2 2 2 1 1 1 2 2 2 2 3 3 3 4 5 4
12 14 11 10 10 11 11 12 12 11 9 10 10 11 9 9 9 8 9 9 8 8 7 6 4 3 3 3 2 2 2 1 1 1 1 1 2 3 3 4 4 5 5 5
13 11 8 9 10 11 11 12 12 11 9 10 11 12 11 9 9 8 8 8 8 7 7 7 4 3 3 3 2 2 2 1 1 1 1 1 3 4 5 6 6 6 5 2
12 9 9 9 10 9 12 10 10 10 12 14 11 15 13 11 10 9 9 9 8 7 7 6 4 4 3 3 2 2 2 2 1 1 2 2 2 4 4 4 5 5 4 2
11 10 10 10 10 9 11 8 9 10 12 14 13 16 14 12 11 10 9 8 8 8 8 7 4 4 3 2 2 2 2 2 1 1 1 2 2 4 3 5 5 5 4 2
10 8 8 9 8 8 8 10 11 13 14 16 15 14 15 12 11 9 8 8 6 6 6 6 4 3 3 2 2 2 2 2 1 1 2 2 2 5 4 5 5 5 4 3
12 10 8 8 11 10 10 12 16 17 17 18 14 15 14 10 9 8 8 8 8 8 6 5 6 4 4 3 3 3 3 3 3 3 3 3 2 5 4 5 5 5 3 3
14 14 9 9 12 13 12 12 16 20 19 17 13 16 13 9 8 7 7 8 8 10 10 6 4 5 4 4 4 4 4 3 3 3 3 3 4 5 5 4 4 4 3 2
16 13 9 9 9 11 13 14 12 14 15 17 15 13 10 9 9 8 8 8 9 10 9 7 5 4 4 5 4 4 4 5 4 4 3 3 3 4 5 5 4 3 3 2
14 17 12 10 8 10 12 11 15 15 21 21 16 15 16 13 11 9 10 10 9 9 9 8 6 4 4 3 3 4 4 5 4 5 4 3 1 2 3 4 4 3 3 3
13 16 15 12 13 13 13 14 14 13 15 20 21 17 12 12 10 10 9 8 8 8 9 8 8 6 3 3 3 3 3 2 3 3 4 4 3 1 1 2 2 3 3 2
13 16 18 15 12 10 11 13 14 17 17 16 16 17 9 9 9 8 8 8 8 7 7 7 7 7 6 3 3 3 2 3 3 2 2 2 2 1 1 1 1 2 2 1
14 18 21 19 15 12 13 12 12 13 15 16 17 16 9 8 8 7 7 8 7 7 7 7 6 7 7 3 3 3 2 2 2 3 3 2 2 1 2 3 3 2 2 2
10 15 17 19 16 13 13 11 10 13 17 17 15 14 12 10 9 8 8 7 7 8 6 7 6 5 6 5 3 3 3 2 2 2 2 4 2 2 4 3 1 1 1 2
12 15 13 11 10 10 11 11 10 12 12 15 14 14 13 12 11 8 7 7 6 7 7 7 6 5 7 6 5 4 4 3 2 2 3 4 4 3 4 3 4 1 1 1
10 14 12 13 10 10 11 10 10 10 11 12 12 13 9 9 8 8 8 6 7 6 5 6 5 4 6 7 6 5 4 3 2 2 2 3 3 3 3 4 4 1 1 1
12 13 15 16 12 12 15 12 11 11 10 11 14 12 8 8 8 7 7 7 6 6 5 6 6 6 6 5 5 6 4 2 2 2 2 2 2 3 3 3 4 2 2 1
13 14 15 16 15 19 13 8 9 10 10 9 10 9 8 8 7 6 5 6 6 5 5 6 6 7 6 6 5 5 4 3 2 2 2 2 2 2 2 3 4 2 2 2
11 14 16 18 17 14 12 10 11 12 12 9 9 8 7 7 7 7 5 5 5 5 5 5 5 5 5 4 4 5 3 3 3 3 2 2 2 3 3 2 2 2 2 2
10 11 14 17 20 22 13 9 7 8 15 8 8 8 8 8 11 9 5 5 5 4 5 5 5 4 5 4 3 4 3 3 3 3 3 3 3 3 4 4 4 2 2 2
14 13 16 17 16 15 10 8 7 15 14 8 8 8 9 10 9 7 5 5 5 4 4 4 4 5 5 4 3 4 4 4 2 2 3 4 4 5 4 5 5 3 2 3
15 17 18 17 21 18 8 8 13 11 9 9 9 9 9 8 8 7 7 6 6 5 4 4 5 5 4 4 5 5 4 2 2 2 3 4 4 5 5 7 6 5 3 3
17 13 15 14 15 10 9 9 9 9 9 8 8 7 7 8 8 7 7 7 6 6 5 4 4 5 5 4 4 4 3 2 3 3 4 4 3 5 5 6 6 7 7 6
12 10 13 12 11 11 9 9 8 8 8 7 7 7 7 8 7 8 7 7 6 6 5 4 4 5 5 4 4 4 3 2 3 4 4 4 4 5 7 7 7 6 8 8
12 12 13 12 10 9 9 8 8 8 7 7 6 6 7 7 7 7 7 6 5 5 4 4 4 4 4 4 4 3 2 2 3 4 4 5 6 5 6 8 9 9 8 10
11 12 13 14 10 10 10 8 7 7 7 7 7 7 7 7 7 6 6 4 4 4 4 4 3 3 3 3 3 3 2 2 4 4 4 4 5 4 5 6 7 9 10 11